Back to catalog

STARLINK-2045

AliveCommunicationsVLEO
NORAD 47353·PAYLOAD·🇺🇸 United States

Launched Jan 20, 2021 from Cape Canaveral Space Force Station

Loading…

Next Passes (next 24 hours)

TLE

FreshSource: CelesTrak SupGP

Epoch: Sep 14, 2026, 21:09 UTC

1 47353C 21005E   26257.88173611  .00007886  00000+0  25363-3 0  2574
2 47353  53.1571 200.1964 0001405  99.0206 309.3196 15.31693001    15

Track STARLINK-2045 in real time with AllMySat

Download on the App Store